Wind_Speed
7 7 8 8 8 8 8 8 9 9 11 12 14 15 15 15 15 15 15 15 15 16 16 15 14 14 14 13 12 12 12 11 11 10 9 9 9 8 8 8 8 7 7
7 8 8 8 8 8 8 9 10 10 11 12 13 14 15 15 15 15 16 15 15 16 15 15 15 14 13 13 12 12 12 11 11 10 9 8 8 8 8 7 7 7 7
7 8 8 8 8 9 9 10 10 11 12 12 13 14 15 15 15 15 15 15 15 15 14 14 14 14 13 12 11 11 11 11 10 10 9 8 7 7 7 7 7 7 6
8 8 8 8 8 9 9 11 11 12 12 12 13 14 15 15 15 15 15 15 15 15 15 14 14 13 13 12 11 11 10 9 9 9 8 7 7 6 6 6 6 6 6
8 8 8 8 9 9 10 11 11 12 12 12 13 14 14 14 15 15 15 15 15 15 15 14 14 13 12 12 11 10 10 9 8 8 8 7 7 6 6 5 5 5 5
8 8 9 9 9 9 10 11 11 12 12 12 13 13 14 14 14 14 15 14 14 14 14 13 13 12 11 11 10 9 9 8 8 7 7 6 6 6 5 5 5 4 4
8 8 9 9 10 10 10 10 11 11 11 11 12 13 13 14 14 15 15 13 14 13 13 13 12 11 11 10 9 9 8 7 7 7 6 5 5 5 4 4 4 3 3
9 9 9 9 10 10 10 10 10 11 11 11 12 13 13 14 14 15 13 13 13 12 12 11 11 11 10 9 8 7 7 6 6 6 5 5 4 4 4 3 3 2 2
10 10 10 10 10 10 9 10 11 11 11 11 12 12 13 13 14 14 13 12 12 11 11 11 10 10 9 8 8 7 6 5 5 5 5 4 3 3 3 2 2 2 2
11 11 10 10 10 10 10 10 10 11 11 11 11 12 12 13 13 13 12 11 11 9 9 9 9 8 7 7 6 6 5 4 4 4 3 3 3 2 2 1 1 1 1
11 11 10 10 10 10 10 11 10 10 11 11 11 11 12 12 12 12 11 11 10 9 8 8 7 7 6 6 5 5 4 4 3 3 2 2 2 1 1 1 1 1 2
11 11 11 10 10 10 10 11 11 11 11 11 11 11 11 11 11 10 10 9 9 8 8 7 6 5 5 5 4 4 4 3 2 1 1 1 1 2 2 2 3 3 3
11 10 10 10 10 10 11 11 11 11 11 11 11 10 10 10 9 9 9 8 8 7 7 6 5 5 4 3 3 3 3 2 1 1 1 2 2 3 3 3 4 4 4
10 10 10 10 10 10 10 11 11 10 10 10 10 9 8 9 9 8 7 7 6 6 5 4 4 3 2 2 2 2 2 2 2 2 2 3 3 4 4 5 5 5 5
10 10 10 10 10 10 10 11 11 11 10 10 9 9 8 8 7 7 6 5 4 4 4 3 3 2 2 1 2 1 1 2 3 3 4 4 4 5 6 7 7 6 6
10 10 10 10 10 10 10 11 12 11 10 9 9 8 8 8 7 5 4 4 4 3 3 3 2 2 2 2 2 2 3 3 4 4 4 5 6 6 7 8 8 8 8
10 9 10 10 10 10 10 10 10 10 10 8 8 7 7 6 5 4 4 4 3 3 2 2 2 2 2 2 2 3 3 4 4 5 5 6 7 7 8 8 9 9 9
11 10 10 10 10 10 10 9 9 9 9 8 7 6 6 5 4 4 3 2 2 3 2 2 2 3 3 3 3 4 4 5 6 6 7 7 8 8 8 9 9 10 10
11 11 11 10 10 10 10 9 9 8 8 8 7 6 5 4 4 4 3 2 1 2 2 3 3 4 5 5 5 6 6 7 8 8 8 9 9 10 10 10 11 11 11
10 10 10 10 10 10 9 9 9 9 8 7 6 6 5 4 4 4 3 2 1 1 2 3 3 4 5 5 6 7 8 8 8 8 9 9 10 11 11 12 11 11 11
10 9 9 9 9 9 8 8 8 8 8 7 6 6 4 3 3 3 2 2 1 2 2 3 4 4 5 6 7 8 8 9 9 9 10 10 11 12 12 12 12 12 12
9 9 9 9 8 8 8 7 7 7 7 7 6 5 4 3 3 2 2 2 2 2 2 3 3 5 6 7 8 9 9 10 10 10 11 11 12 13 13 14 13 13 13
8 8 8 8 8 8 7 7 7 6 6 6 5 5 5 3 3 2 1 2 3 3 3 4 5 6 7 7 8 9 10 11 11 12 12 12 12 13 14 15 15 15 15
6 6 7 7 7 7 7 7 7 7 7 6 6 6 5 5 4 4 3 3 3 4 5 5 6 7 7 8 8 9 10 11 11 11 12 13 14 14 14 15 16 16 16
4 5 5 6 6 7 7 7 6 7 6 6 7 6 6 6 5 5 5 5 5 5 6 6 7 8 8 9 9 10 11 12 12 12 13 13 14 15 15 16 16 16 16
3 3 4 5 5 6 7 7 6 6 6 6 7 7 7 7 6 6 7 7 7 7 7 7 8 9 9 10 11 11 12 12 13 13 13 14 14 15 15 16 16 16 16
Wind_Direction
114 107 105 103 104 107 108 104 101 98 96 99 103 104 106 109 112 115 116 116 118 119 122 124 125 123 122 122 122 120 119 118 120 118 116 115 116 115 114 111 110 107 105
106 101 102 102 101 105 108 109 104 103 102 101 106 108 108 109 113 115 118 118 118 119 121 123 123 124 123 122 120 119 118 117 118 117 117 118 119 119 116 111 111 108 105
100 100 98 100 99 100 106 111 108 108 107 106 110 113 112 113 115 115 118 119 120 121 120 122 122 122 121 120 119 118 117 117 116 116 116 118 115 112 110 111 114 112 110
97 98 98 101 102 101 105 111 111 111 112 112 114 116 113 112 117 118 117 117 120 121 120 121 122 123 121 120 118 117 116 114 114 114 113 113 112 113 114 114 116 113 109
96 98 101 105 106 107 108 109 111 113 114 115 117 119 118 117 117 120 118 118 119 120 121 122 122 123 123 122 118 116 113 112 112 113 109 107 108 109 112 110 111 109 102
100 103 108 109 109 112 112 111 113 116 115 117 117 119 120 120 118 120 121 119 122 122 123 123 122 124 124 123 122 118 114 111 110 109 107 107 108 109 113 114 109 103 101
102 108 111 110 109 111 111 110 112 116 118 121 119 120 122 121 120 120 122 122 126 124 124 126 125 125 123 123 123 121 119 118 115 108 106 108 113 117 121 119 116 113 106
104 109 110 110 107 109 113 114 115 119 123 122 121 120 122 121 122 121 120 120 123 122 122 124 126 126 124 124 123 124 124 122 116 114 113 113 115 120 121 119 125 123 118
100 103 104 105 107 108 106 119 118 119 121 123 124 126 126 124 122 122 120 117 119 121 121 122 123 122 123 125 127 127 123 119 114 114 116 121 120 121 121 124 130 133 142
99 102 103 103 105 105 105 117 120 122 123 127 127 130 128 127 124 123 121 119 118 118 119 118 119 117 120 125 129 129 127 125 124 123 121 125 129 136 140 149 159 161 188
97 101 104 105 102 102 106 115 121 125 125 127 129 130 128 127 126 126 125 123 121 119 118 119 119 119 121 125 129 131 132 132 135 136 135 138 147 166 196 219 238 236 240
95 99 104 106 105 102 102 110 118 121 124 125 129 130 131 129 129 128 126 126 125 125 123 123 119 120 122 126 132 137 141 143 151 158 170 196 212 233 244 247 254 252 253
95 97 99 99 104 104 101 101 112 117 120 121 122 130 134 130 132 134 129 126 129 132 130 130 128 119 123 127 134 141 155 170 188 204 226 249 262 270 265 259 264 265 263
94 97 100 101 101 100 100 97 100 114 123 122 125 129 132 136 136 134 131 129 132 135 137 137 142 141 130 146 161 167 176 202 225 234 253 262 271 281 272 267 270 269 267
90 93 97 98 96 97 100 101 102 107 117 127 134 137 132 139 147 140 138 134 133 135 147 146 158 163 185 212 220 232 256 247 259 266 269 271 278 279 278 273 273 274 268
87 90 94 98 94 94 98 101 101 104 108 115 122 136 139 136 143 146 153 157 159 151 155 160 170 198 246 249 247 275 269 277 281 284 285 284 282 283 281 278 276 275 272
83 90 97 100 93 92 95 96 100 101 103 106 112 121 131 132 136 149 158 170 178 174 171 193 220 238 266 253 251 269 275 282 279 283 291 290 290 288 282 280 277 275 273
78 87 94 98 96 94 92 92 96 99 101 101 106 108 113 115 119 131 134 169 193 199 208 227 249 264 266 266 267 272 278 281 284 288 291 291 291 292 288 285 282 279 275
73 80 87 91 93 92 90 90 90 92 92 92 97 103 110 112 114 113 113 131 186 209 224 242 254 267 273 275 275 276 276 281 287 290 289 289 289 290 291 287 286 284 281
69 78 81 81 83 84 85 84 84 84 85 84 88 96 97 90 94 95 91 86 102 207 235 260 269 270 270 275 279 281 279 282 288 292 291 290 291 290 288 289 289 285 283
67 73 77 77 77 79 80 79 80 80 80 83 86 89 90 80 76 75 65 51 15 327 292 288 278 274 282 286 286 287 286 286 287 289 288 289 290 289 288 287 288 286 285
66 69 73 75 73 72 71 70 71 74 74 74 74 68 71 59 46 35 16 356 350 319 293 288 294 297 294 294 291 291 291 293 290 289 289 289 288 289 289 288 287 287 287
65 70 71 71 70 67 64 62 62 64 63 59 56 49 46 45 37 34 11 342 325 317 318 315 311 313 309 302 299 298 296 296 294 293 293 290 288 287 288 287 287 287 286
54 62 66 63 61 57 53 52 52 54 52 46 41 35 31 35 31 23 8 341 325 320 318 319 318 313 311 311 310 303 300 300 300 297 295 293 291 290 290 289 288 288 287
40 48 55 55 52 47 43 43 45 42 36 31 30 26 23 22 17 11 4 349 335 327 323 323 318 315 312 313 311 307 305 304 302 299 298 296 293 292 292 294 293 290 287
13 21 32 38 37 34 33 31 31 28 25 22 20 19 19 17 13 6 359 348 334 324 319 318 317 314 312 311 311 309 307 305 302 300 298 295 295 294 295 295 293 291 288
Height
5870 5869 5869 5869 5869 5868 5868 5868 5868 5867 5866 5864 5863 5863 5865 5865 5867 5868 5869 5870 5871 5872 5874 5876 5877 5879 5880 5881 5882 5883 5884 5885 5886 5886 5887 5888 5888 5888 5888 5888 5888 5889 5888
5871 5870 5870 5870 5870 5869 5869 5869 5869 5869 5868 5867 5867 5867 5868 5868 5869 5870 5871 5872 5874 5875 5876 5878 5879 5881 5882 5883 5884 5885 5886 5886 5887 5888 5888 5889 5889 5889 5890 5890 5890 5890 5890
5872 5871 5871 5871 5871 5871 5871 5871 5871 5870 5870 5870 5869 5870 5870 5871 5871 5872 5873 5875 5876 5877 5879 5880 5881 5883 5884 5885 5886 5887 5887 5888 5889 5889 5890 5890 5890 5890 5891 5891 5891 5891 5891
5873 5872 5872 5872 5872 5872 5872 5872 5872 5872 5872 5872 5872 5872 5872 5873 5874 5875 5876 5877 5878 5879 5881 5882 5883 5885 5886 5887 5888 5888 5889 5890 5890 5891 5891 5891 5891 5892 5892 5892 5893 5893 5893
5874 5874 5874 5874 5874 5873 5873 5874 5874 5874 5874 5874 5874 5874 5875 5876 5876 5877 5878 5879 5880 5882 5883 5884 5885 5886 5887 5888 5889 5890 5891 5891 5892 5892 5892 5892 5892 5893 5893 5893 5894 5894 5894
5875 5875 5875 5875 5875 5875 5875 5875 5875 5875 5875 5876 5876 5876 5877 5878 5878 5879 5880 5881 5882 5884 5885 5886 5887 5888 5889 5890 5891 5892 5892 5893 5893 5893 5893 5893 5894 5894 5894 5894 5894 5895 5894
5877 5876 5877 5877 5877 5876 5876 5876 5876 5877 5877 5878 5878 5878 5879 5880 5880 5881 5882 5883 5884 5885 5886 5887 5889 5890 5891 5892 5892 5893 5894 5894 5894 5894 5894 5895 5895 5895 5895 5895 5895 5895 5895
5878 5878 5878 5878 5878 5878 5878 5877 5878 5878 5879 5879 5880 5880 5881 5882 5883 5884 5885 5885 5886 5887 5888 5889 5890 5891 5892 5893 5894 5894 5895 5895 5895 5895 5895 5895 5895 5896 5896 5896 5896 5895 5895
5880 5880 5880 5880 5880 5880 5878 5878 5879 5880 5880 5881 5882 5882 5883 5884 5884 5886 5887 5887 5888 5889 5890 5891 5892 5892 5893 5894 5895 5895 5895 5896 5896 5896 5896 5896 5896 5896 5896 5896 5896 5896 5895
5882 5882 5882 5882 5882 5881 5880 5880 5881 5881 5882 5882 5883 5884 5885 5885 5886 5887 5888 5889 5890 5891 5892 5893 5893 5894 5895 5895 5895 5896 5896 5896 5896 5896 5897 5896 5896 5897 5897 5896 5896 5896 5896
5884 5884 5884 5884 5883 5883 5882 5881 5882 5883 5883 5884 5885 5886 5886 5887 5888 5889 5890 5891 5892 5893 5894 5894 5895 5895 5896 5896 5896 5896 5897 5897 5897 5897 5897 5897 5897 5897 5897 5896 5896 5896 5895
5886 5886 5886 5885 5885 5885 5884 5883 5884 5884 5885 5886 5886 5887 5888 5889 5890 5890 5891 5892 5893 5894 5895 5895 5896 5896 5896 5897 5897 5897 5897 5897 5897 5897 5897 5897 5897 5897 5896 5896 5896 5895 5895
5889 5888 5888 5887 5887 5886 5886 5885 5886 5886 5887 5887 5888 5889 5889 5890 5891 5892 5893 5893 5894 5895 5896 5896 5896 5897 5897 5897 5897 5897 5897 5897 5897 5897 5897 5897 5897 5896 5896 5895 5895 5895 5894
5891 5890 5889 5889 5889 5888 5888 5887 5887 5888 5888 5889 5889 5890 5891 5892 5892 5893 5894 5894 5895 5895 5896 5896 5897 5897 5897 5897 5897 5897 5897 5897 5897 5897 5897 5896 5896 5896 5895 5895 5894 5894 5893
5893 5892 5892 5891 5890 5890 5890 5890 5889 5889 5890 5890 5891 5891 5892 5893 5893 5894 5895 5895 5896 5896 5896 5896 5897 5897 5897 5897 5897 5897 5897 5897 5897 5897 5896 5896 5896 5895 5894 5894 5893 5893 5892
5895 5894 5894 5893 5893 5892 5892 5891 5891 5891 5892 5892 5892 5892 5893 5894 5894 5895 5895 5896 5896 5897 5897 5897 5897 5897 5897 5897 5897 5897 5897 5896 5896 5896 5895 5895 5894 5894 5893 5892 5892 5891 5890
5897 5897 5896 5895 5895 5894 5894 5894 5893 5893 5893 5893 5893 5893 5894 5895 5895 5895 5896 5896 5897 5897 5897 5897 5897 5897 5897 5896 5896 5896 5896 5896 5895 5895 5894 5894 5893 5892 5892 5891 5890 5889 5889
5900 5899 5898 5897 5897 5896 5896 5896 5895 5895 5895 5894 5894 5894 5895 5895 5896 5896 5896 5897 5897 5897 5897 5897 5897 5897 5896 5896 5896 5896 5895 5895 5894 5894 5893 5892 5892 5891 5890 5889 5888 5887 5887
5902 5901 5900 5900 5899 5899 5898 5898 5897 5897 5896 5896 5896 5896 5896 5896 5896 5896 5897 5897 5896 5897 5897 5896 5896 5896 5895 5895 5895 5894 5894 5894 5893 5892 5892 5891 5890 5889 5888 5887 5886 5885 5884
5904 5903 5903 5902 5901 5901 5900 5900 5899 5899 5898 5898 5897 5897 5897 5897 5897 5897 5897 5897 5896 5896 5896 5896 5895 5895 5895 5894 5894 5893 5893 5892 5892 5891 5890 5889 5888 5887 5886 5885 5884 5883 5882
5907 5906 5905 5904 5904 5903 5902 5902 5901 5900 5900 5899 5899 5898 5898 5897 5897 5897 5897 5896 5896 5896 5896 5895 5895 5894 5894 5893 5893 5892 5891 5890 5890 5889 5888 5887 5886 5885 5884 5883 5882 5881 5880
5909 5908 5907 5906 5906 5905 5904 5903 5903 5902 5901 5900 5900 5899 5898 5898 5897 5897 5896 5896 5896 5896 5895 5894 5894 5893 5893 5892 5891 5890 5890 5889 5888 5887 5886 5885 5884 5882 5881 5880 5879 5878 5877
5911 5910 5909 5909 5908 5907 5906 5905 5904 5903 5902 5902 5901 5900 5899 5898 5897 5897 5896 5896 5896 5895 5894 5894 5893 5892 5891 5890 5889 5889 5888 5887 5885 5885 5883 5882 5881 5880 5878 5877 5876 5875 5874
5913 5912 5911 5910 5909 5908 5907 5906 5905 5904 5904 5903 5902 5901 5900 5899 5898 5897 5896 5896 5895 5894 5894 5893 5892 5891 5890 5889 5888 5887 5886 5885 5883 5882 5881 5879 5878 5876 5875 5874 5873 5872 5870
5914 5913 5912 5912 5911 5909 5908 5907 5906 5905 5904 5903 5902 5901 5900 5899 5898 5897 5896 5895 5894 5893 5892 5892 5891 5890 5889 5888 5886 5885 5883 5882 5880 5879 5878 5876 5875 5873 5872 5871 5869 5868 5867
5915 5914 5913 5912 5911 5910 5909 5908 5907 5906 5904 5903 5902 5901 5900 5899 5898 5897 5896 5894 5893 5892 5891 5890 5889 5888 5887 5886 5884 5883 5881 5880 5878 5876 5875 5873 5872 5870 5869 5867 5866 5864 5863